Regional Weather Roundup
Issued by NWS

Home | Current Version | Previous Version | Graphics & Text | Print | Product List | Glossary On
Versions: 1 2 3 4 5 6 7 8 9 10 11 12 13 14 15 16 17 18 19 20 21 22 23 24 25 26 27 28 29 30 31 32 33 34 35 36 37 38 39 40 41 42 43 44 45 46 47 48 49 50
276
ASUS45 KBOI 291910
RWRID

IDAHO REGIONAL WEATHER ROUNDUP
NATIONAL WEATHER SERVICE BOISE ID
100 PM MDT WED MAR 29 2017

NOTE: "FAIR" INDICATES FEW OR NO CLOUDS BELOW 12000 FEET
WITH NO SIGNIFICANT WEATHER AND/OR OBSTRUCTIONS TO VISIBILITY

IDZ012-014-292000-
SOUTHWEST IDAHO


CITY           SKY/WX    TMP DP  RH WIND       PRES   REMARKS
BOISE          CLOUDY    57  34  41 SE15      30.13F
CALDWELL       CLOUDY    57  39  51 SE13      30.12F
MOUNTAIN HOME  PTSUNNY   57  37  47 E6        30.13F
$$

IDZ016-017-292000-
SOUTHCENTRAL IDAHO


CITY           SKY/WX    TMP DP  RH WIND       PRES   REMARKS
BURLEY         CLOUDY    54  30  40 VRB7      30.16F
JEROME         CLOUDY    54  31  41 SW7       30.17F
TWIN FALLS     CLOUDY    56  30  37 SW8       30.16F
$$

IDZ019>023-292000-
SOUTHEAST IDAHO


CITY           SKY/WX    TMP DP  RH WIND       PRES   REMARKS
IDAHO FALLS    PTSUNNY   48  32  53 SW16G25   30.18F
POCATELLO      CLOUDY    53  33  46 SW13G22   30.18F
REXBURG        CLOUDY    46  31  55 SW16G23   30.16F
$$

IDZ006-010-011-018-031-032-292000-
CENTRAL IDAHO MOUNTAINS


CITY           SKY/WX    TMP DP  RH WIND       PRES   REMARKS
MCCALL         LGT RAIN  38  35  89 SE6       30.09F WCI  33
HAILEY         PTSUNNY   46  32  57 E6        30.17F
STANLEY          N/A     36  29  75 CALM      30.13F
SALMON         CLOUDY    52  30  43 S15G25    30.04F
CHALLIS        CLOUDY    47  28  47 N7        30.07F
$$

IDZ002-004-006-007-026-292000-
NORTHERN IDAHO


CITY           SKY/WX    TMP DP  RH WIND       PRES   REMARKS
LEWISTON       LGT RAIN  49  44  83 E12       29.94F
LOWELL           N/A     46  44  93 CALM      30.03F
COEUR D`ALENE  LGT RAIN  43  41  93 S8        29.93F
MULLAN PASS    SNOW      33  31  92 VRB5      29.91F VSB 1/4 WCI  29
$$




USA.gov is the U.S. government's official web portal to all federal, state and local government web resources and services.